Location: Stara Lesna
(49.1528°N, 20.2911°E)
Time: 03:42:34
(UTC+02:00)

UNK - Pass Details

Date: 13 July 2020
Orbit: 667 x 685 km, 98.1° (Epoch: 11 August)

Event Time Altitude Azimuth Distance (km) Brightness Sun altitude
Exits shadow 02:57:54 20° 208° (SSW) 1,553 5.0 -13.1°
Maximum altitude 03:00:33 36° 263° (W) 1,061 4.4 -12.9°
Drops below altitude 10° 03:04:51 10° 331° (NNW) 2,127 6.7 -12.5°
Sets 03:07:16 0° 340° (NNW) 3,050 7.7 -12.3°
